GFSSGP_250_spd_057.txt.gz
Wind_Speed
22 19 17 16 14 12 10 11 12 12 11 10 9 7 8 11 15 18 21 22 24 25 27 28 38 45 50 50 50 46 53 51 51 45 45 42 42 44 40 38 39 41 39 40 37 37 39 39 40
21 19 18 16 15 13 11 10 11 11 10 9 9 8 8 10 14 17 20 21 21 22 23 26 32 37 38 40 43 44 47 49 49 50 47 42 45 49 45 40 43 40 38 40 47 46 43 42 41
21 18 17 15 15 12 13 10 11 12 8 9 11 9 8 9 12 16 19 19 20 20 21 24 30 31 31 31 33 36 40 45 50 52 48 44 48 50 46 46 42 43 44 44 45 46 51 50 48
20 20 17 16 15 13 14 13 9 12 11 10 11 11 9 9 11 14 18 21 20 20 20 21 25 28 30 29 29 31 36 39 41 42 45 47 47 48 46 47 49 47 49 51 53 53 54 54 54
19 20 19 17 15 14 14 16 13 12 12 12 12 12 11 10 11 11 13 16 20 20 20 19 21 23 27 27 26 27 31 32 36 40 42 44 44 46 49 51 51 51 50 52 54 55 55 56 56
20 20 20 17 17 15 15 17 14 14 14 13 13 13 11 12 10 12 12 14 15 18 18 19 19 19 21 25 26 25 26 30 35 37 40 42 44 45 47 48 48 50 50 50 52 53 54 56 56
21 20 18 19 18 17 15 14 19 12 15 14 14 13 14 13 13 12 14 13 13 15 17 18 19 20 20 21 23 26 27 27 28 32 35 38 42 43 44 45 45 46 48 50 50 50 50 52 54
22 22 18 19 18 20 19 15 16 17 13 15 15 16 16 15 15 15 14 14 15 15 16 17 19 20 21 21 22 23 25 27 28 31 33 35 37 38 38 40 40 41 43 45 45 47 49 51 53
23 23 22 20 19 19 22 18 16 19 15 16 17 16 17 18 18 18 17 17 16 17 17 17 19 20 21 23 24 25 26 27 29 30 31 32 34 36 38 39 39 40 41 41 43 44 45 47 48
23 23 24 23 23 20 22 22 20 15 20 17 18 18 19 20 20 20 20 20 20 19 20 20 19 20 21 21 23 24 25 25 26 27 29 31 32 34 36 38 39 39 40 40 41 42 44 45 46
24 23 23 25 24 23 21 23 22 18 19 22 20 20 21 21 21 21 22 21 22 23 24 24 24 23 23 23 23 24 25 26 27 28 30 32 33 35 36 37 38 40 41 41 42 42 42 43 45
25 24 24 25 26 25 25 26 25 21 21 24 24 22 23 24 23 22 22 22 25 25 26 27 28 27 27 27 27 28 29 30 32 34 35 36 36 37 38 39 40 41 42 41 41 42 44 46 47
28 27 26 25 26 26 26 26 24 21 26 24 25 26 25 26 26 25 23 23 25 27 27 29 29 28 28 29 29 31 31 31 32 32 33 34 35 37 37 38 39 40 40 41 42 42 42 43 45
30 31 29 26 27 28 27 28 25 25 26 27 26 27 28 28 27 28 26 25 26 27 27 28 29 29 29 29 29 30 31 32 32 33 34 35 35 36 38 37 37 37 37 37 36 36 36 38 40
33 34 32 28 30 30 28 30 24 27 26 29 28 28 29 31 30 30 29 27 28 28 29 29 30 30 30 30 31 32 33 34 34 34 34 34 32 32 33 34 34 33 35 36 37 40 42 42 43
38 35 32 33 34 31 30 34 27 27 28 29 30 30 31 30 31 31 33 31 30 30 30 31 32 33 33 33 34 35 35 36 36 35 34 34 33 35 36 38 41 42 42 43 44 48 49 55 49
40 37 38 38 36 30 30 35 28 29 29 33 33 32 31 32 31 32 34 35 34 32 33 33 34 35 36 36 37 38 38 39 40 40 41 42 42 43 45 47 48 49 50 52 54 55 56 54 55
37 40 40 40 39 30 30 35 32 30 31 35 36 34 33 33 33 34 35 35 35 35 36 36 37 38 39 40 41 41 42 42 41 43 43 45 46 48 50 52 53 54 54 54 53 53 54 56 58
43 42 41 46 41 32 32 31 36 32 34 35 37 38 38 35 32 35 35 34 36 37 38 40 41 41 42 43 44 44 44 45 44 43 44 47 49 51 52 52 52 53 51 52 54 55 56 57 60
45 44 46 50 46 37 37 32 35 37 37 39 40 42 40 36 35 35 35 36 37 39 41 43 43 44 44 45 47 48 47 45 45 46 46 48 50 51 52 54 53 53 54 55 56 58 60 62 63
50 49 53 52 50 41 37 30 34 41 42 44 43 43 40 38 37 35 35 38 40 43 44 44 44 45 46 47 49 50 50 50 50 51 52 53 54 55 56 56 56 56 57 58 60 62 64 66 66
54 57 56 56 54 44 39 27 31 44 47 51 50 41 41 40 40 38 38 39 41 42 41 44 44 46 47 48 50 51 53 54 55 55 56 57 58 59 59 59 59 59 61 63 65 66 66 68 70
60 64 63 61 57 39 36 34 29 42 51 57 54 46 42 42 42 43 43 43 42 44 44 45 46 47 49 50 52 54 55 56 56 57 60 60 61 62 61 61 62 64 65 68 69 69 71 73 75
65 66 67 66 61 39 39 34 21 41 51 58 56 47 44 44 45 44 43 42 42 43 47 50 50 50 51 53 55 56 58 60 62 64 64 64 62 60 62 63 64 66 68 70 72 73 75 75 75
66 69 72 71 64 47 43 27 24 39 45 53 57 52 49 48 45 43 44 46 45 45 47 50 52 54 55 57 58 61 62 64 64 64 63 62 61 63 64 66 66 69 71 72 73 76 77 80 83
77 75 72 73 69 57 39 27 36 46 47 49 53 56 56 51 49 48 49 48 48 47 47 49 50 52 53 55 57 59 60 60 60 62 62 63 64 66 67 68 69 71 72 75 77 79 82 85 87
77 75 75 80 73 65 48 41 41 46 49 47 56 58 60 60 59 57 55 53 52 52 52 51 50 51 51 52 53 55 57 60 62 64 65 66 67 68 69 70 71 75 77 79 81 85 88 88 89
78 79 80 79 76 72 55 48 49 53 54 54 56 58 64 66 63 60 58 56 54 55 56 56 57 57 56 57 59 61 62 63 64 65 67 68 69 70 71 72 76 79 82 87 89 90 91 91 92
88 87 85 84 82 76 67 52 55 55 54 57 63 63 64 66 63 59 58 58 58 59 58 57 58 60 61 61 61 63 64 66 68 69 69 71 72 72 73 75 80 86 89 90 92 93 93 93 95
88 86 87 86 81 79 75 54 56 59 57 59 62 65 66 63 61 61 61 62 63 64 62 62 63 63 63 64 66 66 68 69 71 72 73 74 75 74 76 81 84 88 91 93 95 95 95 98 99

GFSSGP_250_spd_060.txt.gz
Wind_Speed
32 27 24 22 18 14 14 16 14 12 10 10 10 9 8 11 13 16 18 20 21 22 24 27 29 28 32 38 39 45 45 46 45 46 47 45 47 47 45 43 41 36 35 36 36 39 40 39 37
31 28 26 22 17 14 14 15 13 12 11 10 9 8 8 9 13 15 18 20 21 21 22 25 29 32 36 42 40 47 46 45 44 49 46 47 43 45 42 45 41 41 38 39 41 43 42 42 42
32 30 26 21 18 15 11 14 14 12 12 10 8 8 8 9 10 13 16 18 21 22 24 24 28 31 38 46 47 47 50 47 46 49 50 51 48 50 52 49 45 41 40 41 42 44 44 46 48
35 31 25 23 17 17 13 11 13 13 12 11 8 7 8 7 10 11 15 18 20 21 22 23 26 30 34 39 41 42 40 39 39 41 46 50 51 48 49 47 47 45 46 46 45 45 47 49 51
35 30 24 22 18 17 15 12 11 12 12 12 10 8 7 7 8 10 12 16 20 21 21 23 26 27 30 35 37 36 34 32 34 40 42 46 48 49 52 48 48 50 50 47 48 49 51 52 53
31 28 23 22 19 16 19 13 13 12 12 14 12 10 9 9 9 8 10 11 15 18 21 21 23 25 28 28 29 30 28 28 31 34 36 39 40 42 44 46 47 46 47 48 49 51 51 50 51
30 27 23 21 21 16 18 17 14 12 14 12 12 11 10 10 9 10 10 12 13 16 17 19 21 23 23 24 25 26 27 28 27 30 33 35 37 39 42 44 46 47 48 48 50 49 49 49 51
29 27 24 22 22 18 15 16 15 14 15 15 13 12 11 12 12 11 12 12 12 14 15 16 18 19 21 23 23 23 24 27 30 30 32 32 33 35 36 38 40 42 43 43 43 42 43 44 45
28 27 24 24 22 20 20 16 14 15 15 17 14 13 13 13 13 14 16 15 15 15 15 17 17 19 20 22 23 24 25 26 27 28 30 31 32 33 34 36 37 39 40 41 42 42 44 45 45
26 27 25 23 21 19 20 20 16 14 19 15 16 14 15 14 15 15 17 19 19 19 19 18 19 19 20 21 22 24 25 26 26 27 29 29 30 31 31 32 33 35 37 37 39 39 40 41 42
26 25 24 23 21 21 19 20 19 17 19 21 16 16 18 17 16 17 17 19 21 23 22 22 22 22 22 23 24 24 24 24 25 27 28 30 31 32 34 35 36 39 40 41 41 41 41 41 42
27 26 25 23 22 22 23 22 21 19 20 21 21 19 20 20 19 18 18 18 21 22 24 25 25 26 27 27 27 28 29 30 29 31 33 34 36 37 38 37 37 38 39 39 41 43 42 42 43
29 28 27 26 25 25 23 22 21 22 21 21 22 23 21 21 23 21 19 19 20 23 23 24 25 26 28 29 29 30 32 33 34 35 36 36 37 37 37 37 38 39 39 41 41 40 41 42 42
31 30 29 28 28 29 28 24 20 25 23 23 23 24 24 23 22 21 23 21 21 21 22 23 23 24 25 26 29 30 30 31 32 33 34 36 36 37 38 38 38 38 39 40 42 42 41 42 43
33 33 32 31 31 33 29 29 23 26 26 26 25 24 25 26 25 22 22 24 23 24 23 23 24 24 26 27 27 28 29 31 32 33 34 37 37 38 39 39 39 39 40 41 43 44 45 45 46
38 36 36 36 35 34 32 34 29 27 29 30 31 29 27 26 26 25 27 25 25 25 26 27 27 27 27 29 28 29 31 32 33 35 36 39 40 40 41 41 43 42 44 47 48 51 52 52 52
43 38 38 40 40 35 34 37 29 30 31 31 32 32 31 30 29 26 27 27 28 26 25 27 29 30 30 31 33 34 35 36 36 37 38 41 42 42 43 44 46 48 51 54 55 55 56 57 56
41 40 43 42 43 36 36 38 31 31 33 35 34 34 35 33 30 29 30 28 28 28 27 27 30 31 32 33 35 37 38 39 40 39 39 41 42 42 44 47 49 51 52 51 52 54 55 55 56
44 43 44 50 47 37 36 34 37 31 35 38 38 38 39 37 32 31 30 30 30 29 29 30 31 32 34 36 39 40 40 42 43 44 44 43 44 44 46 47 49 51 52 53 54 54 57 57 57
46 46 47 52 49 39 38 32 38 36 36 40 43 41 38 38 35 31 31 31 30 30 32 32 33 35 38 41 42 42 43 45 46 47 48 47 49 50 50 51 53 55 55 56 57 58 58 59 62
56 51 54 51 53 44 40 30 39 41 40 44 49 45 40 37 35 33 33 33 31 32 32 34 36 37 38 41 42 44 45 46 47 49 51 52 53 53 55 55 55 57 58 60 60 59 61 64 66
59 59 58 58 57 51 44 26 36 42 45 47 55 51 45 39 34 37 36 36 35 34 36 37 39 40 41 40 40 42 44 47 50 52 54 55 56 57 58 59 62 61 61 60 60 62 64 65 67
63 66 66 61 63 56 43 34 33 42 44 52 59 56 43 43 40 39 40 37 36 34 33 37 40 42 44 45 46 45 47 49 52 54 56 58 59 61 62 64 63 63 64 61 62 64 66 68 70
72 69 68 68 66 58 50 52 30 38 42 47 61 62 46 44 44 43 41 41 40 41 39 39 41 45 47 48 49 50 52 53 55 57 59 61 63 63 64 64 64 64 63 65 66 69 69 71 73
74 73 73 74 70 58 59 56 33 43 42 50 62 61 51 51 47 46 46 45 44 44 44 44 45 47 48 49 50 51 53 56 58 59 61 62 62 62 61 62 64 65 67 68 69 71 73 74 75
80 78 77 76 71 64 64 55 34 48 49 49 57 60 58 54 51 50 49 47 47 46 46 46 48 48 48 49 51 51 53 54 56 57 57 58 60 62 64 64 65 67 69 71 73 74 74 76 78
81 78 79 84 80 72 63 61 41 44 54 54 52 58 61 62 58 57 54 53 51 52 52 50 51 50 50 51 53 52 52 54 56 58 60 62 63 64 66 67 69 70 71 73 74 76 78 78 81
85 82 87 86 84 81 67 61 54 51 56 58 58 62 62 66 65 62 60 58 57 56 56 55 53 52 52 51 51 53 55 58 60 62 62 64 66 66 68 71 72 75 78 80 80 79 79 81 84
91 90 87 87 86 84 76 64 60 57 59 60 62 66 68 69 66 65 65 64 59 56 55 56 56 56 56 56 57 59 60 61 63 65 67 68 69 71 74 77 79 81 82 82 83 82 85 88 90
95 91 92 93 88 88 83 68 64 68 66 66 63 67 72 69 68 68 68 66 64 60 58 58 58 59 58 59 61 61 63 66 66 68 70 71 73 76 79 81 82 83 81 82 84 87 89 87 91

GFSSGP_250_spd_063.txt.gz
Wind_Speed
50 39 31 25 24 24 21 17 13 12 10 9 8 10 9 9 10 12 15 19 22 23 25 26 31 34 37 35 30 29 36 36 40 40 38 36 33 34 37 37 37 39 41 43 46 44 42 45 49
48 45 31 25 24 21 20 18 15 10 9 7 8 9 8 8 9 11 14 17 19 21 21 22 24 26 28 26 27 31 33 37 40 36 37 39 41 41 42 43 43 44 44 42 43 43 41 41 40
49 52 32 28 27 21 18 16 16 12 9 7 6 9 9 7 8 10 12 15 17 19 20 20 22 24 28 30 30 36 41 41 40 41 43 43 44 44 45 45 44 46 46 41 38 41 42 43 43
56 50 32 31 26 21 19 16 13 13 11 9 7 5 8 9 7 8 11 14 16 19 20 21 23 25 28 29 37 41 44 43 42 41 45 47 49 48 49 47 46 47 49 47 45 42 44 44 47
60 44 33 30 25 20 17 16 14 12 11 10 8 7 6 7 7 7 9 12 16 18 20 21 22 22 24 32 36 40 43 46 48 48 43 45 45 48 48 48 48 48 48 49 48 48 49 49 49
50 35 34 31 26 21 16 15 13 11 10 10 9 9 8 7 6 7 8 9 12 15 19 21 22 24 27 28 29 35 38 39 39 39 40 39 40 43 42 45 49 47 48 50 48 49 50 50 51
48 37 33 30 24 22 17 14 12 12 10 10 10 8 9 8 8 8 9 8 10 11 15 17 19 20 22 26 28 30 31 35 37 36 34 33 35 36 36 38 40 40 41 44 46 47 48 48 48
46 37 31 27 23 21 19 16 14 14 10 8 9 9 10 10 9 10 10 10 10 11 12 14 16 18 19 21 23 26 28 28 28 27 28 28 30 32 32 34 35 36 37 39 41 42 43 44 43
42 37 32 28 25 21 20 17 15 16 14 10 8 9 10 11 11 11 11 11 12 12 12 13 16 17 17 19 21 23 25 25 25 25 25 26 27 28 28 31 32 34 36 38 39 40 42 43 43
41 36 31 27 25 23 21 17 13 14 17 12 11 11 11 11 12 12 13 14 14 15 15 15 16 16 17 18 19 20 20 21 22 23 23 23 24 25 26 27 28 30 33 34 36 38 39 40 41
41 35 30 27 24 23 20 19 14 16 16 17 13 13 13 13 13 13 15 16 17 17 18 17 18 19 20 21 21 21 22 22 24 25 25 26 27 28 29 31 33 35 37 38 39 40 41 42 43
39 33 30 27 24 23 21 17 14 19 17 16 18 16 15 14 14 15 15 16 18 20 20 21 20 21 22 22 23 25 26 26 27 29 30 31 31 32 33 34 35 36 38 40 41 41 41 42 43
38 34 30 27 26 26 24 20 15 20 19 19 19 20 18 17 16 15 16 16 18 20 21 22 22 22 23 24 24 25 27 28 28 31 33 33 34 34 35 36 36 36 37 38 38 38 40 41 41
36 33 32 30 29 30 28 22 19 22 22 22 22 22 21 20 18 17 18 18 18 19 21 22 23 23 23 24 24 24 26 28 28 29 30 32 31 32 32 32 32 33 35 35 35 37 38 41 43
37 35 33 30 30 32 30 26 23 23 24 24 24 24 24 24 22 20 20 21 22 20 20 22 23 23 23 24 23 24 25 26 27 29 29 31 31 30 29 30 31 33 35 36 38 40 42 43 46
39 36 35 33 32 34 33 31 28 28 30 27 28 26 25 24 23 21 24 24 22 22 22 23 24 24 25 26 26 25 26 27 27 29 30 32 32 33 32 34 35 35 38 40 42 45 47 48 50
43 39 38 38 37 34 32 35 28 31 33 32 30 28 28 26 22 20 23 23 25 26 26 25 26 27 28 27 26 27 28 28 29 31 32 33 34 35 35 36 36 38 40 42 44 47 48 50 51
42 41 43 43 41 34 31 35 31 31 35 37 36 34 32 29 24 22 21 22 23 25 26 27 27 28 28 28 29 29 29 31 33 34 35 36 37 40 39 39 40 41 43 45 47 49 51 52 54
47 46 46 49 42 34 33 33 34 31 36 39 39 39 37 34 31 25 22 22 23 24 25 25 27 27 28 29 31 32 33 35 37 38 39 40 41 43 44 44 45 46 47 48 50 52 53 55 57
52 51 51 51 46 36 35 28 34 33 34 38 41 43 39 36 34 30 25 26 25 26 27 26 28 29 29 30 31 33 33 36 38 39 41 42 43 46 48 49 50 50 51 54 54 55 57 59 60
58 56 57 52 50 39 36 24 32 39 37 39 45 46 42 38 32 32 28 27 31 30 28 31 32 31 31 33 32 34 35 36 39 40 41 44 46 49 51 52 54 55 57 57 59 60 62 63 63
62 64 60 57 52 49 40 23 33 43 42 44 51 47 45 39 30 34 34 32 32 32 31 31 33 35 35 36 35 36 38 39 41 42 45 47 48 50 53 55 57 59 60 61 63 64 63 62 62
67 69 68 65 61 53 39 38 29 45 43 51 53 52 50 44 34 35 38 36 35 37 36 35 37 38 39 39 39 39 41 43 44 46 48 50 52 53 56 59 60 62 64 65 64 62 61 64 65
75 75 74 72 69 60 47 54 26 43 45 52 57 61 54 47 40 38 39 41 41 39 40 38 38 38 40 39 40 41 42 43 44 45 47 49 51 53 55 57 59 60 60 60 61 64 64 65 66
78 78 80 79 73 62 58 55 31 42 46 53 59 64 64 57 52 45 41 42 41 39 38 40 42 42 43 44 45 45 45 44 45 45 47 47 48 51 53 54 56 59 60 61 63 64 64 67 68
86 83 81 79 77 72 67 50 42 47 51 55 56 55 62 63 55 51 47 47 45 45 45 47 49 48 47 46 45 46 47 46 47 47 47 48 50 52 54 56 58 60 61 64 65 67 70 73 75
86 84 82 87 80 78 68 61 54 53 54 59 57 55 55 56 63 56 53 53 52 51 52 54 54 53 52 48 45 46 48 50 51 51 52 54 56 55 56 58 59 60 63 66 69 71 74 77 79
87 85 86 87 86 86 75 67 59 58 59 59 59 58 60 57 62 63 60 58 57 55 57 58 56 55 56 56 51 49 50 53 55 57 56 59 59 60 61 64 65 66 68 71 74 77 79 82 85
94 91 91 92 92 90 83 70 62 59 59 60 62 62 67 65 65 68 67 64 60 58 58 59 59 59 60 57 55 56 57 59 61 61 61 62 63 66 68 70 71 73 74 78 80 81 85 86 84
94 93 94 96 93 94 89 69 63 63 65 67 69 69 69 71 71 71 69 68 64 59 60 62 62 63 61 59 59 61 61 64 65 66 67 68 69 71 73 74 75 78 82 84 86 88 87 85 85

GFSSGP_250_spd_069.txt.gz
Wind_Speed
40 36 44 45 41 39 28 23 18 17 17 17 15 14 13 13 12 14 17 19 21 23 25 23 22 24 20 23 24 23 24 31 40 42 42 41 43 43 43 44 44 44 40 39 40 43 42 41 45
41 44 41 40 42 37 29 24 19 17 16 16 16 16 14 13 13 13 15 18 19 20 22 23 24 25 27 29 28 26 25 27 28 32 36 39 38 40 43 41 40 41 41 37 38 38 41 41 43
46 39 43 39 40 37 29 25 22 18 16 15 14 16 16 14 13 13 14 16 17 20 22 23 23 24 27 31 33 31 32 34 33 37 39 41 40 39 37 38 37 39 40 42 44 45 45 45 42
40 46 44 43 44 38 30 24 22 19 17 14 13 14 15 15 15 14 14 15 17 19 20 21 21 22 23 26 29 32 37 37 35 34 37 39 37 36 35 37 37 40 41 48 45 44 46 44 46
48 45 45 44 41 41 31 25 22 21 19 15 14 14 15 16 15 16 15 14 16 18 18 19 21 21 21 23 24 26 28 30 32 35 34 37 39 42 43 41 42 43 43 49 49 50 48 45 46
43 45 43 50 49 39 33 25 23 21 19 16 13 13 14 16 15 16 16 15 15 16 18 18 20 21 22 24 24 26 27 30 30 33 37 40 43 45 44 41 39 40 44 48 49 57 50 48 51
43 45 55 50 43 38 33 26 24 21 19 17 14 13 13 14 15 16 16 16 16 16 17 19 20 21 22 24 24 23 26 28 30 32 36 38 39 38 36 37 39 38 38 37 37 39 45 48 46
44 51 49 45 39 38 35 27 23 21 18 18 15 13 12 13 13 15 16 17 16 17 17 18 20 21 22 24 25 27 30 31 31 31 33 34 34 35 37 37 36 37 36 35 33 33 34 36 36
54 50 44 45 51 43 35 28 25 22 19 18 16 13 12 13 13 14 15 17 18 18 18 19 19 20 21 22 23 24 26 26 26 28 30 31 31 33 34 33 32 32 30 30 31 32 33 33 34
45 41 49 52 50 47 37 30 28 24 18 16 14 13 12 12 14 14 15 16 18 20 21 21 21 21 21 21 23 23 23 23 25 27 29 31 30 29 29 28 28 28 28 29 30 32 33 34 36
47 48 45 50 55 47 38 31 30 25 19 15 14 14 14 12 13 14 15 16 17 19 21 22 24 24 25 25 26 27 27 27 26 26 26 27 28 28 28 29 29 29 31 32 33 34 35 36 36
46 52 47 48 52 43 40 32 30 27 23 16 13 12 12 12 12 13 14 16 18 19 21 22 23 25 26 28 29 30 31 31 31 30 30 31 31 31 31 31 31 31 32 32 33 34 37 37 37
41 45 49 52 53 42 43 36 30 30 27 22 16 13 11 11 13 14 15 16 18 19 21 22 23 24 26 28 29 30 31 32 33 33 33 34 35 33 32 33 33 34 35 36 38 38 38 37 37
49 47 45 47 45 44 44 35 29 31 31 27 21 17 15 12 13 15 16 17 18 20 21 23 24 25 27 28 30 31 32 33 34 33 34 34 34 35 34 33 33 34 35 36 36 36 37 37 36
50 47 44 41 44 43 42 36 29 33 30 28 24 20 19 17 16 17 18 19 20 21 22 23 25 27 28 29 31 33 34 35 34 36 35 35 36 36 36 36 36 37 36 37 37 37 37 37 37
49 47 43 43 41 41 39 38 31 34 34 31 28 24 21 18 16 19 19 20 21 23 24 24 26 27 29 30 31 33 35 36 37 38 39 38 38 39 39 38 39 40 41 41 41 40 40 40 40
50 48 46 45 40 38 37 39 33 34 36 34 32 27 26 23 17 22 21 22 23 24 26 27 28 28 30 31 32 33 35 36 37 39 41 42 42 41 42 41 41 41 42 43 44 43 43 43 44
54 51 49 46 41 41 39 38 33 34 35 37 35 33 33 31 25 24 23 23 25 26 29 30 30 29 30 31 31 33 34 34 36 37 38 40 42 41 41 42 43 43 43 44 46 46 46 47 48
54 53 51 49 47 43 38 37 36 34 37 39 36 36 35 34 28 27 22 23 26 26 28 28 30 31 30 30 29 30 31 33 35 35 37 38 40 41 42 41 41 42 43 43 45 47 49 50 52
56 56 55 57 50 43 41 38 38 36 40 38 36 38 37 38 34 29 25 23 27 29 30 28 30 31 32 31 31 31 28 31 32 33 34 35 37 39 41 42 42 44 46 47 48 49 51 52 53
59 58 61 60 53 50 49 38 41 38 39 38 40 41 39 39 38 33 32 25 25 31 32 30 30 29 31 29 30 30 30 30 33 34 35 36 38 40 42 43 45 47 48 49 50 51 52 53 55
65 65 66 62 61 59 52 39 41 42 37 39 44 43 43 42 42 41 38 33 24 30 35 34 32 32 33 32 32 31 32 32 34 35 35 36 39 42 44 46 47 49 50 50 52 54 55 56 58
68 69 71 71 69 62 54 48 40 48 41 47 49 47 47 47 45 46 46 41 36 31 36 36 36 38 36 35 35 33 34 36 38 39 38 40 42 45 47 48 49 50 49 52 54 53 54 55 55
75 75 76 75 74 67 59 57 35 46 51 51 54 54 52 51 49 51 51 50 44 35 34 38 42 42 41 40 39 39 41 40 43 44 44 46 46 47 45 47 47 47 48 49 49 50 51 53 53
81 80 82 82 79 67 69 63 32 43 50 54 59 58 60 57 55 54 57 57 50 41 37 38 41 44 43 43 43 43 45 46 48 48 49 52 53 52 52 51 52 51 48 48 50 52 53 56 57
89 88 85 79 83 74 72 58 46 46 52 57 61 65 67 67 65 63 62 62 59 53 39 39 42 46 46 46 47 48 49 50 52 52 54 56 56 57 57 57 57 56 56 57 57 57 58 59 60
90 90 86 93 87 85 74 61 56 54 55 57 63 69 70 69 68 69 67 68 69 64 55 49 46 46 51 50 51 54 56 56 54 55 58 59 59 60 61 62 61 61 62 62 63 64 64 65 67
91 92 93 92 92 93 77 71 62 62 64 65 64 68 68 72 71 73 76 77 75 73 69 65 58 55 54 54 56 57 59 59 60 60 61 61 62 63 65 66 66 66 67 67 68 68 70 69 71
98 94 92 95 96 97 90 78 65 69 70 70 71 73 73 76 79 81 82 81 79 77 74 73 70 63 61 58 60 62 63 64 64 64 63 64 64 65 67 69 69 70 70 71 72 72 75 74 73
102 99 101 103 95 101 101 86 74 74 75 77 81 81 79 79 82 85 87 89 87 83 77 72 70 66 64 63 63 64 67 68 68 67 68 67 66 66 68 71 73 73 74 74 72 74 77 79 79

GFSSGP_250_spd_072.txt.gz
Wind_Speed
33 30 33 32 39 31 33 26 20 18 16 16 16 15 12 12 12 13 14 14 15 17 18 20 19 21 31 25 25 25 28 30 34 35 37 42 45 45 46 47 47 46 47 47 47 47 46 45 45
32 31 32 37 37 31 32 25 21 18 16 17 18 16 14 12 12 12 14 14 15 17 20 20 20 20 30 25 23 25 26 26 29 37 37 39 42 42 42 42 42 43 45 43 42 43 43 41 41
39 36 39 43 36 36 35 30 20 17 15 17 18 17 15 13 12 12 12 13 15 17 20 20 19 21 23 30 27 28 28 26 27 26 28 33 36 39 40 39 37 38 40 41 42 41 41 44 42
42 42 40 39 37 37 36 32 22 17 16 16 17 17 17 15 13 12 13 14 15 18 20 22 21 21 25 28 31 32 34 35 34 34 33 34 37 39 40 38 37 35 35 39 40 41 43 46 45
39 37 34 41 37 33 32 35 25 21 17 16 17 15 17 16 14 13 13 14 15 18 20 21 21 21 23 27 29 30 33 34 36 36 35 35 32 32 30 31 37 39 41 41 41 41 42 45 45
43 38 41 36 39 38 31 36 28 21 18 16 15 16 15 16 16 15 14 14 15 17 18 19 21 24 23 24 26 27 27 30 30 31 31 32 34 37 40 41 43 44 43 40 39 40 43 45 47
40 44 42 40 41 38 36 40 31 20 17 17 15 15 14 14 15 15 15 15 15 16 17 18 20 20 23 25 26 28 28 28 29 29 31 31 34 36 39 41 42 39 37 38 38 38 39 39 38
44 43 42 38 40 41 44 42 33 23 18 17 15 14 13 13 14 14 15 16 16 17 17 17 19 21 22 24 26 28 27 28 27 28 29 31 33 35 37 38 38 36 36 36 37 37 38 38 37
41 46 42 39 46 45 47 43 34 27 20 16 15 15 14 12 13 13 15 17 18 17 18 18 19 20 20 22 24 26 28 29 29 30 32 33 35 36 35 35 35 35 35 36 37 36 36 35 34
47 46 39 40 44 49 45 42 45 32 22 17 16 15 15 14 13 13 14 15 17 19 20 20 21 21 22 23 24 25 26 27 28 29 31 32 33 34 35 35 36 36 36 35 36 35 35 36 38
49 47 39 47 45 42 41 48 43 34 25 19 16 16 15 16 15 15 14 15 15 17 20 21 22 23 24 25 26 27 28 29 29 31 32 33 33 33 33 34 34 35 37 39 39 39 39 40 41
50 45 47 50 42 39 45 50 39 37 25 22 19 16 16 16 15 14 15 15 16 17 18 19 20 22 25 27 28 30 31 32 32 32 33 34 35 35 37 38 39 39 40 41 40 40 40 41 42
52 48 48 45 40 43 48 47 38 37 27 21 21 20 18 18 17 17 16 16 17 18 18 20 20 22 23 25 27 30 31 33 34 34 35 37 39 40 40 41 41 41 41 41 41 40 41 42 42
56 51 43 41 39 44 48 43 39 37 31 22 22 21 20 19 19 19 17 18 18 18 20 21 22 23 24 26 27 29 31 31 32 34 35 35 38 39 40 41 41 42 43 44 44 44 44 45 45
52 51 44 46 41 43 44 41 39 38 34 28 24 23 23 22 22 21 19 20 20 21 22 23 24 25 26 27 29 30 31 32 32 34 35 36 37 39 40 41 42 43 43 44 44 45 45 46 46
52 54 47 43 44 41 39 43 39 37 35 31 28 26 26 25 22 24 22 22 22 22 24 25 25 26 27 28 30 31 32 33 34 34 36 36 38 38 39 41 42 43 45 46 47 48 49 49 49
52 58 52 47 44 41 37 40 39 35 36 35 34 28 27 27 25 27 27 26 26 26 27 28 27 28 29 30 31 32 32 32 31 33 35 34 37 38 39 39 42 44 46 47 48 49 49 49 50
60 54 51 48 46 42 40 41 40 35 36 38 38 36 32 32 30 30 29 29 30 29 29 30 30 29 29 29 29 30 31 30 31 30 32 32 33 35 38 38 41 43 45 46 47 49 49 48 47
59 57 54 54 50 49 45 43 39 36 36 43 44 39 37 35 31 31 31 30 29 31 31 32 30 30 30 30 30 30 30 29 29 28 30 27 29 32 35 37 38 40 41 43 44 46 47 49 50
63 61 59 60 55 53 48 41 40 40 39 41 41 42 39 40 36 32 33 33 34 31 30 32 32 30 28 31 31 31 30 29 31 29 31 30 28 31 35 37 37 39 41 43 46 48 49 50 51
65 66 63 63 58 54 49 38 47 41 37 40 43 44 42 43 40 36 35 37 37 36 33 33 33 33 31 31 31 31 31 31 32 32 31 33 32 33 35 37 39 40 43 45 48 50 51 52 52
69 68 65 67 60 55 49 39 46 42 41 42 45 49 47 45 44 43 39 40 42 39 37 35 32 35 38 34 33 35 35 34 34 34 36 33 34 37 39 39 42 43 43 44 47 48 49 51 52
69 70 69 70 63 55 52 46 43 49 45 48 49 53 50 51 50 46 44 43 42 47 42 41 39 37 39 40 39 40 40 39 40 41 42 39 38 41 42 44 45 46 46 49 51 51 51 53 51
73 73 72 71 68 57 59 57 41 52 53 51 57 57 56 53 55 52 50 49 48 47 51 48 46 40 39 41 44 44 44 44 43 45 48 46 45 47 49 49 48 49 50 52 54 56 54 55 56
78 77 79 78 75 64 67 65 46 52 55 60 59 63 62 60 58 56 55 53 53 54 55 56 53 47 42 39 45 49 47 47 46 47 52 50 51 53 54 53 53 54 55 55 57 59 61 61 61
87 85 85 82 83 74 78 67 55 57 56 58 65 67 69 68 66 67 63 61 60 61 62 61 59 54 45 45 46 48 53 50 51 52 55 55 56 57 58 58 59 60 59 60 61 62 64 65 65
92 92 90 95 91 87 80 68 61 60 62 61 64 69 72 74 73 73 74 70 69 68 66 64 63 58 56 51 54 54 51 57 59 59 61 61 62 61 63 63 63 62 64 64 64 64 65 67 69
91 90 92 95 92 90 79 76 68 65 68 69 67 67 72 75 79 80 79 77 75 74 74 72 68 67 66 62 62 61 62 62 62 64 65 65 66 66 67 67 65 66 67 67 67 67 69 70 73
98 97 96 98 97 94 90 79 69 72 72 73 74 72 74 76 78 84 84 84 82 80 81 79 77 74 70 70 72 73 71 69 67 67 68 68 70 71 72 70 70 70 71 70 70 70 72 74 78
100 99 102 103 98 103 102 85 75 76 79 81 80 80 80 81 84 87 88 88 89 88 86 84 82 82 80 78 78 78 79 76 76 74 72 72 71 74 75 75 75 75 75 75 74 75 77 77 79

GFSSGP_250_spd_075.txt.gz
Wind_Speed
36 35 32 27 31 37 31 37 31 24 22 17 16 12 11 11 11 11 10 10 11 12 16 18 21 27 29 32 36 32 26 36 37 35 36 39 39 43 45 45 47 45 45 46 48 48 47 48 50
25 29 30 34 33 30 29 31 30 22 20 16 13 11 11 11 12 10 9 9 11 12 15 18 20 22 27 32 29 26 25 29 35 36 38 40 39 40 40 43 44 46 44 44 46 47 47 47 47
26 29 31 35 36 36 28 28 31 21 19 15 12 10 12 11 12 11 10 9 9 11 14 17 18 24 26 34 32 27 24 26 31 33 33 33 36 36 38 40 42 43 46 43 42 43 43 42 47
34 32 32 33 37 32 31 30 32 21 18 15 12 10 11 12 12 10 11 10 10 11 13 14 16 19 23 30 32 28 28 27 26 27 30 31 31 37 37 38 39 40 41 42 40 42 40 43 44
40 37 35 34 32 35 34 26 35 26 18 15 13 11 11 11 12 11 12 12 11 12 13 16 17 19 21 27 34 35 35 33 34 35 37 36 37 38 37 40 39 39 39 40 40 41 43 46 48
36 35 37 35 36 33 32 30 33 30 21 15 14 12 11 12 12 11 11 12 13 13 14 16 18 19 20 24 27 30 32 34 35 35 38 39 38 38 39 38 36 36 39 39 42 44 45 42 44
42 44 28 34 42 34 35 35 27 35 25 17 13 12 10 11 13 12 12 12 13 13 14 17 18 19 20 22 23 26 30 31 32 31 33 32 34 36 36 36 37 39 41 42 42 40 40 42 43
38 34 40 35 33 36 35 33 24 34 30 20 14 12 12 10 11 14 14 14 13 14 14 15 17 18 20 22 24 26 27 29 29 30 30 32 32 33 35 37 38 38 40 42 42 41 41 41 41
43 42 39 37 35 35 38 36 35 38 27 25 16 14 12 11 10 11 14 17 16 16 15 16 17 18 19 22 24 26 27 29 30 30 31 32 34 35 36 38 39 41 40 40 40 40 40 41 41
39 35 35 36 36 40 39 41 38 37 30 28 17 15 13 13 12 12 12 14 17 19 19 18 18 19 20 21 23 24 25 27 29 31 32 33 34 36 37 38 38 38 39 40 40 40 40 40 40
38 27 36 34 35 37 42 42 44 39 36 29 20 15 15 13 14 14 14 13 14 17 20 21 21 22 22 23 24 25 26 27 29 30 31 33 33 35 36 37 38 39 39 38 38 39 40 43 45
43 40 43 39 41 44 41 42 38 42 38 30 24 18 15 15 15 15 16 16 16 16 16 19 21 24 24 26 27 27 28 29 30 31 33 34 36 36 37 39 40 41 41 42 43 44 44 45 46
46 39 43 43 44 46 42 41 46 44 36 31 26 24 19 16 16 17 17 17 18 18 18 18 19 21 22 23 26 27 29 30 31 33 34 36 37 38 38 40 41 42 43 44 44 44 44 44 46
51 45 45 45 44 46 39 44 43 43 40 37 34 24 25 22 20 18 19 20 20 19 20 20 20 22 23 24 25 27 27 29 30 31 32 34 36 38 39 40 40 42 43 44 44 44 44 44 46
55 46 49 52 50 48 40 42 32 35 40 43 34 33 29 28 25 24 21 22 21 23 23 22 23 23 24 26 26 27 27 28 30 31 32 33 35 35 36 38 40 41 42 43 43 44 43 44 46
54 57 56 52 51 46 39 40 41 32 41 42 48 43 32 30 28 26 24 24 25 25 26 26 25 27 27 27 28 27 29 29 30 32 33 33 33 35 34 35 36 38 40 41 41 43 43 44 46
60 59 57 57 56 51 42 44 36 32 36 46 42 36 34 33 31 31 30 27 28 30 30 31 31 31 32 31 31 31 30 31 30 29 30 30 32 33 32 34 35 36 37 38 39 41 43 43 43
69 65 64 63 58 50 43 46 45 36 38 36 36 36 32 35 30 31 32 31 31 29 31 30 32 33 34 34 32 33 34 30 29 29 30 29 31 33 34 33 33 35 36 37 39 39 40 43 44
70 69 71 62 60 56 50 44 42 37 36 38 38 33 32 33 30 31 35 35 36 34 32 32 35 35 34 35 34 34 35 34 32 29 29 30 29 32 37 36 34 35 37 37 39 39 40 42 46
73 73 70 64 62 55 50 45 47 42 39 38 37 39 35 34 33 33 37 38 37 37 36 34 34 36 36 37 35 34 34 35 33 30 30 31 30 30 35 37 36 34 35 38 39 41 41 42 44
75 73 71 67 62 58 55 45 50 46 43 42 41 43 40 41 36 35 38 41 41 39 40 41 39 38 37 37 37 35 36 37 36 34 34 36 34 31 35 39 38 38 38 41 42 43 43 43 47
77 74 71 67 67 59 55 46 51 52 49 48 46 46 45 41 42 41 41 43 45 44 42 43 44 42 41 38 37 39 40 41 41 42 41 41 40 37 38 39 43 43 43 45 46 46 46 48 50
75 77 74 72 68 62 55 52 53 55 50 52 50 51 49 50 49 47 45 44 46 49 49 46 45 46 45 43 41 40 43 45 45 47 47 47 46 44 44 46 46 46 47 51 52 51 50 52 54
76 78 75 74 69 63 60 58 47 59 56 55 56 56 55 54 54 54 52 49 48 49 50 51 49 50 51 50 47 47 46 46 47 49 51 52 52 48 48 50 50 51 53 55 56 55 55 57 57
75 77 78 75 72 64 66 59 49 54 61 60 59 61 62 62 60 59 57 56 55 54 53 53 53 53 53 55 56 56 53 49 48 51 53 56 57 56 55 54 56 58 60 60 60 61 62 62 60
77 75 75 75 74 72 70 54 57 55 58 61 65 65 64 66 67 68 66 64 62 61 58 57 58 58 58 59 59 59 58 57 56 54 53 57 60 61 63 63 63 64 65 65 64 64 65 64 64
78 73 78 80 78 78 71 62 61 63 65 65 67 68 70 71 73 75 75 73 72 69 67 63 61 61 60 62 64 63 62 64 65 64 63 62 62 63 68 69 67 68 68 68 69 68 68 68 69
85 86 86 86 84 83 73 71 67 72 75 74 75 76 76 77 77 77 78 79 80 79 77 74 72 70 68 68 65 65 69 72 74 73 74 73 73 72 72 69 72 73 74 72 73 73 74 74 75
93 93 94 94 95 93 86 78 74 77 78 79 80 80 79 79 79 80 81 81 81 82 83 83 80 77 76 76 75 74 75 77 79 82 84 83 83 82 79 77 72 73 76 76 76 75 76 78 80
100 98 100 100 99 100 98 82 79 83 85 84 85 85 85 85 83 85 84 84 86 88 88 86 85 85 84 83 83 81 81 82 83 83 84 85 87 86 85 81 77 77 75 77 78 77 78 81 83